GPS BIIF-8

Last updated on Sat Aug 15 2026 00:02:48 GMT+0000 (Coordinated Universal Time)

1 40294U 14068A 26226.25792497 -.00000080 00000+0 00000+0 0 9998 2 40294 57.0270 28.7213 0067426 73.2056 287.5454 2.00555037 86379
UTC large
Height (km)
Speed (km/s)
/
Latitude / Longitude
Inclination (degrees)
Orbital Period (minutes)
Azimuth
Elevation
Range (km)
Doppler Factor

Next 0 passes for location: London (51.5072 / 0.1276)

No passes found over London.
GPS BIIF-8